Weather History for Crestview, FL

Change the Weather History Date:

Thursday, September 5, 2013

  Actual Average Record
Temperature  
Mean Temperature 82 °F -  
Max Temperature 95 °F 89 °F 97 °F (1951)
Min Temperature 71 °F 70 °F 60 °F (2010)
Cooling Degree Days 17    
Growing Degree Days 32 (Base 50)    
Moisture  
Dew Point 72 °F    
Average Humidity 80    
Maximum Humidity 94    
Minimum Humidity 45    
Precipitation  
Precipitation 0.06 in - - ()
Sea Level Pressure  
Sea Level Pressure 30.08 in    
Wind  
Wind Speed 1 mph (NW)    
Max Wind Speed 9 mph    
Max Gust Speed -    
Visibility 7 miles    
Events Rain , Thunderstorm    
Averages and records for this station are not official NWS values.
T = Trace of Precipitation, MM = Missing Value Source: NWS Daily Summary

Daily Weather History Graph

Daily Weather History Graph

Search for Another Location

Airport:

Trip Planner

Search our weather history database for the weather conditions in past years. The results will help you decide how hot, cold, wet, or windy it might be!

Date:

Astronomy

Sep. 05, 2013 Rise Set
Actual Time 6:24 AM CDT 7:03 PM CDT
Civil Twilight 6:00 AM CDT 7:28 PM CDT
Nautical Twilight 5:31 AM CDT 7:56 PM CDT
Astronomical Twilight 5:02 AM CDT 8:26 PM CDT
Moon 6:31 AM CDT (9/5) 7:01 PM CDT (9/5)
Length of Visible Light 13h 27m
Length of Day
12h 39m
New Moon, 0% of the Moon is Illuminated
Sep 5
New Moon
Sep 12
First Quarter
Sep 19
Full
Sep 26
Last Quarter
Oct 4
New

Hourly Weather History & Observations

Time (CDT) Temp. Heat Index Dew Point Humidity Pressure Visibility Wind Dir Wind Speed Gust Speed Precip Events Conditions
12:53 AM 73.9 °F - 72.0 °F 93% 30.07 in 3.0 mi Calm Calm - N/A   Clear
1:53 AM 73.9 °F - 72.0 °F 93% 30.06 in 2.5 mi Calm Calm - N/A   Clear
2:03 AM 73.4 °F - 71.6 °F 94% 30.07 in 3.0 mi Calm Calm - N/A   Clear
2:53 AM 73.0 °F - 71.1 °F 93% 30.05 in 3.0 mi Calm Calm - N/A   Clear
3:53 AM 72.0 °F - 70.0 °F 93% 30.06 in 3.0 mi Calm Calm - N/A   Clear
4:00 AM 71.6 °F - 69.8 °F 94% 30.06 in 2.5 mi Calm Calm - N/A   Clear
4:09 AM 71.6 °F - 69.8 °F 94% 30.06 in 4.0 mi Calm Calm - N/A   Clear
4:48 AM 71.6 °F - 69.8 °F 94% 30.07 in 2.5 mi Calm Calm - N/A   Clear
4:53 AM 72.0 °F - 70.0 °F 93% 30.06 in 4.0 mi Calm Calm - N/A   Clear
5:53 AM 72.0 °F - 70.0 °F 93% 30.08 in 4.0 mi Calm Calm - N/A   Clear
6:53 AM 72.0 °F - 70.0 °F 93% 30.10 in 3.0 mi Calm Calm - N/A   Clear
7:53 AM 77.0 °F - 73.0 °F 88% 30.11 in 7.0 mi Calm Calm - N/A   Clear
8:53 AM 82.9 °F 88.8 °F 73.0 °F 72% 30.12 in 10.0 mi NNW 4.6 mph - N/A   Clear
9:53 AM 86.0 °F 93.8 °F 73.9 °F 67% 30.13 in 10.0 mi NNW 4.6 mph - N/A   Clear
10:53 AM 88.0 °F 95.6 °F 73.0 °F 61% 30.14 in 10.0 mi Calm Calm - N/A   Clear
11:53 AM 89.1 °F 97.0 °F 73.0 °F 59% 30.12 in 10.0 mi NNW 5.8 mph - N/A   Mostly Cloudy
12:53 PM 90.0 °F 96.4 °F 71.1 °F 54% 30.10 in 10.0 mi Calm Calm - N/A   Partly Cloudy
1:53 PM 90.0 °F 96.9 °F 72.0 °F 55% 30.08 in 10.0 mi East 3.5 mph - N/A   Partly Cloudy
2:53 PM 93.0 °F 97.9 °F 69.1 °F 45% 30.05 in 10.0 mi Variable 4.6 mph - N/A   Partly Cloudy
3:53 PM 91.0 °F 97.6 °F 71.1 °F 52% 30.04 in 10.0 mi Calm Calm - N/A   Overcast
4:53 PM 90.0 °F 97.9 °F 73.0 °F 57% 30.04 in 10.0 mi SSW 9.2 mph - 0.00 in   Scattered Clouds
5:53 PM 88.0 °F 96.5 °F 73.9 °F 63% 30.04 in 10.0 mi Calm Calm - 0.00 in   Mostly Cloudy
6:44 PM 84.2 °F 92.3 °F 75.2 °F 74% 30.06 in 10.0 mi WSW 3.5 mph - 0.00 in Rain , Thunderstorm Light Rain
6:53 PM 84.0 °F 92.6 °F 75.9 °F 76% 30.06 in 10.0 mi West 4.6 mph - 0.00 in Rain , Thunderstorm Light Rain
7:53 PM 78.1 °F - 75.0 °F 90% 30.09 in 5.0 mi NNW 9.2 mph - 0.06 in Rain Rain
8:53 PM 75.0 °F - 73.0 °F 94% 30.09 in 10.0 mi Calm Calm - 0.00 in   Scattered Clouds
9:53 PM 75.9 °F - 73.9 °F 94% 30.09 in 10.0 mi Calm Calm - N/A   Clear
10:53 PM 75.9 °F - 73.0 °F 91% 30.09 in 10.0 mi Calm Calm - N/A   Clear
11:53 PM 75.0 °F - 72.0 °F 90% 30.09 in 8.0 mi Calm Calm - N/A   Clear